OK,107,46,865,107,2014-10-01T01:40:00,0,28072635,198059
OK,107,46,865,107,2014-10-01T01:45:00,0,28073082,198059
OK,107,46,865,107,2014-10-01T01:50:00,0,28073531,198059
OK,107,46,865,107,2014-10-01T01:55:00,0,28073848,198059
OK,107,46,865,107,2014-10-01T02:00:00,0,28074297,198059
OK,107,46,865,107,2014-10-01T02:05:00,0,28074739,198059
OK,107,46,865,107,2014-10-01T02:10:00,0,28075186,198059
OK,107,46,865,107,2014-10-01T02:15:00,0,28075635,198059
OK,107,46,865,107,2014-10-01T02:20:00,0,28076022,198059
OK,107,46,865,107,2014-10-01T02:25:00,0,28076467,198059
OK,107,46,865,107,2014-10-01T02:30:00,0,28076916,198059
OK,107,46,865,107,2014-10-01T02:35:00,0,28077365,198059
OK,107,46,865,107,2014-10-01T02:40:00,0,28077769,198059
OK,107,46,865,107,2014-10-01T02:45:00,0,28078217,198059
OK,107,46,865,107,2014-10-01T02:50:00,0,28078662,198059
OK,90,55,865,90,2014-10-01T02:55:00,1,28079111,198059
OK,92,54,865,92,2014-10-01T03:00:00,2,28079553,198059
OK,94,52,865,94,2014-10-01T03:05:00,0,28080002,198059
OK,107,46,865,107,2014-10-01T03:10:00,1,28080338,198059
OK,107,46,865,107,2014-10-01T03:15:00,0,28080785,198059
OK,107,46,865,107,2014-10-01T03:20:00,0,28081234,198059
OK,107,46,865,107,2014-10-01T03:25:00,0,28081681,198059
OK,111,44,865,111,2014-10-01T03:30:00,1,28082130,198059
OK,66,75,865,66,2014-10-01T03:35:00,1,28082565,198059
OK,66,75,865,66,2014-10-01T03:40:00,1,28082995,198059
OK,66,75,865,66,2014-10-01T03:45:00,0,28083444,198059
OK,66,75,865,66,2014-10-01T03:50:00,0,28083893,198059
OK,157,31,865,157,2014-10-01T03:55:00,2,28084335,198059
OK,147,33,865,147,2014-10-01T04:00:00,3,28084762,198059
OK,102,48,865,102,2014-10-01T04:05:00,1,28085208,198059
OK,118,42,865,118,2014-10-01T04:10:00,2,28085653,198059
OK,133,37,865,133,2014-10-01T04:15:00,1,28086102,198059
OK,129,38,865,129,2014-10-01T04:20:00,1,28086544,198059
OK,122,40,865,122,2014-10-01T04:25:00,2,28086993,198059
OK,140,35,865,140,2014-10-01T04:30:00,6,28087438,198059
OK,147,33,865,147,2014-10-01T04:35:00,5,28087887,198059
OK,117,42,865,117,2014-10-01T04:40:00,3,28088313,198059
OK,112,44,865,112,2014-10-01T04:45:00,6,28088760,198059
OK,136,36,865,136,2014-10-01T04:50:00,7,28089191,198059
OK,150,33,865,150,2014-10-01T04:55:00,8,28089639,198059
OK,145,34,865,145,2014-10-01T05:05:00,6,28090088,198059
OK,146,34,865,146,2014-10-01T05:10:00,7,28090881,198059
OK,141,35,865,141,2014-10-01T05:15:00,7,28091330,198059
OK,143,34,865,143,2014-10-01T05:20:00,10,28091748,198059
OK,154,32,865,154,2014-10-01T05:25:00,16,28092196,198059
OK,152,32,865,152,2014-10-01T05:30:00,11,28092641,198059
OK,147,33,865,147,2014-10-01T05:35:00,7,28093081,198059
OK,147,33,865,147,2014-10-01T05:40:00,8,28093512,198059
OK,156,31,865,156,2014-10-01T05:45:00,10,28093961,198059
OK,178,27,865,178,2014-10-01T05:50:00,13,28094375,198059
OK,178,27,865,178,2014-10-01T05:55:00,15,28094817,198059
OK,141,35,865,141,2014-10-01T06:00:00,12,28095264,198059
OK,141,35,865,141,2014-10-01T06:05:00,4,28095713,198059
OK,158,31,865,158,2014-10-01T06:10:00,4,28096127,198059
OK,173,28,865,173,2014-10-01T06:15:00,6,28096575,198059
OK,158,31,865,158,2014-10-01T06:20:00,13,28097010,198059
OK,151,32,865,151,2014-10-01T06:25:00,13,28097458,198059
OK,154,32,865,154,2014-10-01T06:30:00,4,28097907,198059
OK,167,29,865,167,2014-10-01T06:35:00,5,28098346,198059
OK,154,32,865,154,2014-10-01T06:40:00,9,28098788,198059
OK,153,32,865,153,2014-10-01T06:45:00,8,28099236,198059
OK,134,37,865,134,2014-10-01T06:50:00,5,28099581,198059
OK,159,31,865,159,2014-10-01T06:55:00,8,28100028,198059
OK,159,31,865,159,2014-10-01T07:00:00,6,28100337,198059
OK,122,40,865,122,2014-10-01T07:05:00,1,28100784,198059
OK,115,43,865,115,2014-10-01T07:10:00,5,28101156,198059
OK,114,43,865,114,2014-10-01T07:15:00,7,28101604,198059
OK,124,40,865,124,2014-10-01T07:20:00,5,28102041,198059
OK,140,35,865,140,2014-10-01T07:25:00,7,28102489,198059
OK,140,35,865,140,2014-10-01T07:30:00,5,28102920,198059
OK,101,49,865,101,2014-10-01T07:35:00,1,28103363,198059
OK,95,52,865,95,2014-10-01T07:40:00,2,28103808,198059
OK,103,48,865,103,2014-10-01T07:45:00,2,28104253,198059
OK,114,43,865,114,2014-10-01T07:50:00,4,28104695,198059
OK,139,35,865,139,2014-10-01T07:55:00,3,28105139,198059
OK,139,35,865,139,2014-10-01T08:00:00,1,28105580,198059
OK,139,35,865,139,2014-10-01T08:05:00,0,28106028,198059
OK,155,32,865,155,2014-10-01T08:10:00,1,28106465,198059
OK,131,38,865,131,2014-10-01T08:15:00,3,28106873,198059
OK,123,40,865,123,2014-10-01T08:20:00,2,28107303,198059
OK,114,43,865,114,2014-10-01T08:25:00,2,28107752,198059
OK,96,51,865,96,2014-10-01T08:30:00,0,28108191,198059
OK,96,51,865,96,2014-10-01T08:35:00,0,28108640,198059
OK,96,51,865,96,2014-10-01T08:40:00,0,28109069,198059
OK,96,51,865,96,2014-10-01T08:45:00,0,28109517,198059
OK,96,51,865,96,2014-10-01T08:50:00,0,28109861,198059
OK,120,41,865,120,2014-10-01T08:55:00,4,28110309,198059
OK,98,50,865,98,2014-10-01T09:00:00,4,28110732,198059
OK,122,40,865,122,2014-10-01T09:05:00,5,28111181,198059
OK,128,38,865,128,2014-10-01T09:10:00,4,28111610,198059
OK,110,45,865,110,2014-10-01T09:15:00,4,28112059,198059
OK,126,39,865,126,2014-10-01T09:20:00,11,28112401,198059
OK,136,36,865,136,2014-10-01T09:25:00,9,28112849,198059
OK,96,51,865,96,2014-10-01T09:30:00,0,28113274,198059
OK,144,34,865,144,2014-10-01T09:35:00,2,28113722,198059
OK,149,33,865,149,2014-10-01T09:40:00,5,28114154,198059
OK,151,32,865,151,2014-10-01T09:45:00,5,28114603,198059
OK,151,32,865,151,2014-10-01T09:50:00,1,28114958,198059
OK,118,42,865,118,2014-10-01T09:55:00,3,28115406,198059
OK,118,42,865,118,2014-10-01T10:00:00,2,28115819,198059
OK,124,40,865,124,2014-10-01T10:05:00,2,28116267,198059
OK,121,41,865,121,2014-10-01T10:10:00,2,28116676,198059
OK,112,44,865,112,2014-10-01T10:15:00,2,28117124,198059
OK,116,42,865,116,2014-10-01T10:20:00,3,28117549,198059
OK,116,42,865,116,2014-10-01T10:25:00,1,28117998,198059
OK,134,37,865,134,2014-10-01T10:30:00,2,28118443,198059
OK,134,37,865,134,2014-10-01T10:35:00,4,28118890,198059
OK,127,39,865,127,2014-10-01T10:40:00,2,28119334,198059
OK,117,42,865,117,2014-10-01T10:45:00,1,28119782,198059
OK,117,42,865,117,2014-10-01T10:50:00,1,28120230,198059
OK,120,41,865,120,2014-10-01T10:55:00,2,28120679,198059
OK,117,42,865,117,2014-10-01T11:00:00,3,28121063,198059
OK,133,37,865,133,2014-10-01T11:05:00,2,28121511,198059
OK,133,37,865,133,2014-10-01T11:10:00,2,28121950,198059
OK,82,60,865,82,2014-10-01T11:15:00,1,28122398,198059
OK,126,39,865,126,2014-10-01T11:20:00,4,28122840,198059
OK,133,37,865,133,2014-10-01T11:25:00,5,28123288,198059
OK,87,57,865,87,2014-10-01T11:30:00,4,28123721,198059
OK,94,52,865,94,2014-10-01T11:35:00,4,28124169,198059
OK,135,36,865,135,2014-10-01T11:40:00,7,28124573,198059
OK,143,34,865,143,2014-10-01T11:45:00,8,28125020,198059
OK,147,33,865,147,2014-10-01T11:50:00,4,28125449,198059
OK,149,33,865,149,2014-10-01T11:55:00,6,28125898,198059
OK,153,32,865,153,2014-10-01T12:00:00,7,28126251,198059
OK,144,34,865,144,2014-10-01T12:05:00,4,28126699,198059
OK,135,36,865,135,2014-10-01T12:10:00,3,28127148,198059
OK,162,30,865,162,2014-10-01T12:15:00,3,28127597,198059
OK,112,44,865,112,2014-10-01T12:20:00,3,28128026,198059
OK,109,45,865,109,2014-10-01T12:25:00,3,28128474,198059
OK,142,35,865,142,2014-10-01T12:30:00,4,28128909,198059
OK,172,28,865,172,2014-10-01T12:35:00,3,28129358,198059
OK,172,28,865,172,2014-10-01T12:40:00,5,28129793,198059
OK,159,31,865,159,2014-10-01T12:45:00,9,28130241,198059
OK,143,34,865,143,2014-10-01T12:50:00,8,28130670,198059
OK,142,35,865,142,2014-10-01T12:55:00,6,28131118,198059
OK,158,31,865,158,2014-10-01T13:00:00,4,28131556,198059
OK,138,36,865,138,2014-10-01T13:05:00,6,28132004,198059
OK,134,37,865,134,2014-10-01T13:10:00,6,28132443,198059
OK,135,36,865,135,2014-10-01T13:15:00,3,28132889,198059
OK,143,34,865,143,2014-10-01T13:20:00,9,28133327,198059
OK,140,35,865,140,2014-10-01T13:25:00,9,28133776,198059
OK,100,49,865,100,2014-10-01T13:30:00,5,28134215,198059
OK,164,30,865,164,2014-10-01T13:35:00,6,28134664,198059
OK,161,30,865,161,2014-10-01T13:40:00,5,28135084,198059
OK,140,35,865,140,2014-10-01T13:45:00,7,28135532,198059
OK,161,30,865,161,2014-10-01T13:50:00,5,28135969,198059
OK,152,32,865,152,2014-10-01T13:55:00,4,28136418,198059
OK,140,35,865,140,2014-10-01T14:00:00,7,28136858,198059
OK,140,35,865,140,2014-10-01T14:05:00,5,28137307,198059
OK,97,51,865,97,2014-10-01T14:10:00,7,28137741,198059
OK,132,37,865,132,2014-10-01T14:15:00,9,28138190,198059
OK,159,31,865,159,2014-10-01T14:20:00,10,28138619,198059
OK,181,27,865,181,2014-10-01T14:25:00,10,28139067,198059
OK,182,27,865,182,2014-10-01T14:30:00,4,28139479,198059
OK,128,38,865,128,2014-10-01T14:35:00,8,28139927,198059
OK,138,36,865,138,2014-10-01T14:40:00,14,28140370,198059
OK,164,30,865,164,2014-10-01T14:45:00,6,28140818,198059
OK,163,30,865,163,2014-10-01T14:50:00,3,28141245,198059
OK,162,30,865,162,2014-10-01T14:55:00,6,28141693,198059
OK,161,30,865,161,2014-10-01T15:00:00,6,28142122,198059
OK,152,32,865,152,2014-10-01T15:05:00,5,28142570,198059
OK,143,34,865,143,2014-10-01T15:10:00,5,28142998,198059
OK,143,34,865,143,2014-10-01T15:15:00,6,28143446,198059
OK,145,34,865,145,2014-10-01T15:20:00,3,28143894,198059
OK,144,34,865,144,2014-10-01T15:25:00,0,28144343,198059
OK,117,42,865,117,2014-10-01T15:30:00,2,28144766,198059
OK,130,38,865,130,2014-10-01T15:35:00,8,28145178,198059
OK,136,36,865,136,2014-10-01T15:40:00,6,28145627,198059
OK,90,55,865,90,2014-10-01T15:45:00,5,28146076,198059
OK,90,55,865,90,2014-10-01T15:50:00,5,28146525,198059
OK,123,40,865,123,2014-10-01T15:55:00,4,28146935,198059
OK,128,38,865,128,2014-10-01T16:00:00,2,28147377,198059
OK,105,47,865,105,2014-10-01T16:05:00,6,28147826,198059
OK,105,47,865,105,2014-10-01T16:10:00,8,28148228,198059
OK,93,53,865,93,2014-10-01T16:15:00,2,28148676,198059
OK,129,38,865,129,2014-10-01T16:20:00,1,28149116,198059
OK,101,49,865,101,2014-10-01T16:25:00,2,28149564,198059
OK,101,49,865,101,2014-10-01T16:30:00,2,28149991,198059
OK,106,46,865,106,2014-10-01T16:35:00,3,28150439,198059
OK,106,46,865,106,2014-10-01T16:40:00,7,28150858,198059
OK,105,47,865,105,2014-10-01T16:45:00,6,28151306,198059
OK,106,46,865,106,2014-10-01T16:50:00,3,28151755,198059
OK,106,46,865,106,2014-10-01T17:00:00,1,28152204,198059
OK,122,40,865,122,2014-10-01T17:05:00,1,28152650,198059
OK,122,40,865,122,2014-10-01T17:10:00,1,28153097,198059
OK,122,40,865,122,2014-10-01T17:15:00,0,28153546,198059
OK,124,40,865,124,2014-10-01T17:20:00,1,28153957,198059
OK,124,40,865,124,2014-10-01T17:25:00,1,28154405,198059
OK,121,41,865,121,2014-10-01T17:30:00,2,28154847,198059
OK,135,36,865,135,2014-10-01T17:35:00,3,28155295,198059
OK,169,29,865,169,2014-10-01T17:40:00,1,28155715,198059
OK,169,29,865,169,2014-10-01T17:45:00,0,28156162,198059
OK,128,38,865,128,2014-10-01T17:50:00,3,28156611,198059
OK,128,38,865,128,2014-10-01T17:55:00,3,28157049,198059
OK,118,42,865,118,2014-10-01T18:00:00,1,28157480,198059
OK,115,43,865,115,2014-10-01T18:05:00,2,28157927,198059
OK,120,41,865,120,2014-10-01T18:10:00,3,28158371,198059
OK,120,41,865,120,2014-10-01T18:15:00,3,28158817,198059
OK,90,55,865,90,2014-10-01T18:20:00,0,28159263,198059
OK,90,55,865,90,2014-10-01T18:25:00,0,28159599,198059
OK,90,55,865,90,2014-10-01T18:30:00,0,28160047,198059
OK,136,36,865,136,2014-10-01T18:35:00,2,28160496,198059
OK,146,34,865,146,2014-10-01T18:40:00,4,28160935,198059
OK,152,32,865,152,2014-10-01T18:45:00,2,28161383,198059
OK,152,32,865,152,2014-10-01T18:50:00,0,28161800,198059
OK,108,46,865,108,2014-10-01T18:55:00,2,28162249,198059
OK,108,46,865,108,2014-10-01T19:00:00,3,28162647,198059
OK,118,42,865,118,2014-10-01T19:05:00,1,28163082,198059
OK,118,42,865,118,2014-10-01T19:10:00,0,28163530,198059
OK,118,42,865,118,2014-10-01T19:15:00,0,28163979,198059
OK,118,42,865,118,2014-10-01T19:20:00,0,28164411,198059
OK,89,55,865,89,2014-10-01T19:25:00,1,28164859,198059
OK,103,48,865,103,2014-10-01T19:30:00,2,28165285,198059
OK,106,46,865,106,2014-10-01T19:35:00,2,28165732,198059
OK,96,51,865,96,2014-10-01T19:40:00,1,28166173,198059
OK,96,51,865,96,2014-10-01T19:45:00,0,28166535,198059
OK,96,51,865,96,2014-10-01T19:50:00,0,28166984,198059
OK,96,51,865,96,2014-10-01T19:55:00,0,28167413,198059
OK,96,51,865,96,2014-10-01T20:00:00,0,28167847,198059
OK,137,36,865,137,2014-10-01T20:05:00,1,28168295,198059
OK,137,36,865,137,2014-10-01T20:10:00,1,28168740,198059
OK,135,36,865,135,2014-10-01T20:15:00,1,28169189,198059
OK,124,40,865,124,2014-10-01T20:20:00,2,28169637,198059
OK,113,44,865,113,2014-10-01T20:25:00,1,28170063,198059
OK,113,44,865,113,2014-10-01T20:30:00,0,28170508,198059
OK,97,51,865,97,2014-10-01T20:35:00,1,28170956,198059
OK,97,51,865,97,2014-10-01T20:40:00,1,28171393,198059
OK,97,51,865,97,2014-10-01T20:45:00,0,28171839,198059
OK,119,41,865,119,2014-10-01T20:50:00,2,28172287,198059
OK,119,41,865,119,2014-10-01T20:55:00,2,28172733,198059
OK,129,38,865,129,2014-10-01T21:00:00,0,28173179,198059
OK,129,38,865,129,2014-10-01T21:05:00,0,28173628,198059
OK,129,38,865,129,2014-10-01T21:10:00,0,28174069,198059
OK,129,38,865,129,2014-10-01T21:15:00,0,28174518,198059
OK,129,38,865,129,2014-10-01T21:20:00,0,28174944,198059
OK,129,38,865,129,2014-10-01T21:25:00,0,28175340,198059
OK,129,38,865,129,2014-10-01T21:30:00,0,28175789,198059
OK,129,38,865,129,2014-10-01T21:35:00,0,28176238,198059
OK,129,38,865,129,2014-10-01T21:40:00,0,28176687,198059
OK,129,38,865,129,2014-10-01T21:45:00,0,28177047,198059
OK,129,38,865,129,2014-10-01T21:50:00,0,28177483,198059
OK,91,54,865,91,2014-10-01T21:55:00,1,28177929,198059
OK,91,54,865,91,2014-10-01T22:00:00,0,28178378,198059
OK,91,54,865,91,2014-10-01T22:05:00,0,28178825,198059
OK,91,54,865,91,2014-10-01T22:10:00,0,28179260,198059
OK,91,54,865,91,2014-10-01T22:15:00,0,28179702,198059
OK,91,54,865,91,2014-10-01T22:20:00,0,28180149,198059
OK,91,54,865,91,2014-10-01T22:25:00,0,28180547,198059
OK,91,54,865,91,2014-10-01T22:30:00,0,28180996,198059
OK,91,54,865,91,2014-10-01T22:35:00,0,28181420,198059
OK,91,54,865,91,2014-10-01T22:40:00,0,28181868,198059
OK,91,54,865,91,2014-10-01T22:45:00,0,28182315,198059
OK,91,54,865,91,2014-10-01T22:50:00,0,28182764,198059
OK,112,44,865,112,2014-10-01T22:55:00,1,28183181,198059
OK,112,44,865,112,2014-10-01T23:00:00,1,28183614,198059
OK,112,44,865,112,2014-10-01T23:05:00,0,28184059,198059
OK,112,44,865,112,2014-10-01T23:10:00,0,28184508,198059
OK,112,44,865,112,2014-10-01T23:15:00,0,28184943,198059
OK,112,44,865,112,2014-10-01T23:20:00,0,28185391,198059
OK,112,44,865,112,2014-10-01T23:25:00,0,28185822,198059
OK,112,44,865,112,2014-10-01T23:30:00,0,28186214,198059
OK,112,44,865,112,2014-10-01T23:40:00,0,28187061,198059
OK,112,44,865,112,2014-10-01T23:55:00,0,28188393,198059
OK,112,44,865,112,2014-10-02T00:00:00,0,28188829,198059
OK,112,44,865,112,2014-10-02T00:05:00,0,28189278,198059
OK,112,44,865,112,2014-10-02T00:10:00,0,28189701,198059
OK,112,44,865,112,2014-10-02T00:15:00,0,28190149,198059
OK,112,44,865,112,2014-10-02T00:20:00,0,28190503,198059
OK,112,44,865,112,2014-10-02T00:25:00,0,28190951,198059
OK,112,44,865,112,2014-10-02T00:30:00,0,28191400,198059
OK,112,44,865,112,2014-10-02T00:35:00,0,28191707,198059
OK,112,44,865,112,2014-10-02T00:40:00,0,28192155,198059
OK,112,44,865,112,2014-10-02T00:45:00,0,28192588,198059
OK,112,44,865,112,2014-10-02T00:50:00,0,28193032,198059
OK,112,44,865,112,2014-10-02T00:55:00,0,28193399,198059
OK,112,44,865,112,2014-10-02T01:05:00,0,28194297,198059
OK,112,44,865,112,2014-10-02T01:15:00,0,28194746,198059
OK,112,44,865,112,2014-10-02T01:20:00,0,28195431,198059
OK,112,44,865,112,2014-10-02T01:30:00,0,28195880,198059
OK,112,44,865,112,2014-10-02T01:35:00,0,28196613,198059
OK,112,44,865,112,2014-10-02T01:40:00,0,28197037,198059
OK,112,44,865,112,2014-10-02T01:45:00,0,28197485,198059
OK,112,44,865,112,2014-10-02T01:50:00,0,28197933,198059
OK,112,44,865,112,2014-10-02T01:55:00,0,28198381,198059
OK,112,44,865,112,2014-10-02T02:00:00,0,28198830,198059
OK,112,44,865,112,2014-10-02T02:05:00,0,28199207,198059
OK,112,44,865,112,2014-10-02T02:10:00,0,28199644,198059
OK,112,44,865,112,2014-10-02T02:15:00,0,28200086,198059
OK,112,44,865,112,2014-10-02T02:20:00,0,28200529,198059
OK,112,44,865,112,2014-10-02T02:25:00,0,28200978,198059
OK,112,44,865,112,2014-10-02T02:30:00,0,28201409,198059
OK,112,44,865,112,2014-10-02T02:45:00,0,28202307,198059
OK,112,44,865,112,2014-10-02T02:50:00,0,28202749,198059
OK,112,44,865,112,2014-10-02T02:55:00,0,28203197,198059
OK,112,44,865,112,2014-10-02T03:00:00,0,28203632,198059
OK,105,47,865,105,2014-10-02T03:10:00,1,28204081,198059
OK,105,47,865,105,2014-10-02T03:25:00,0,28204530,198059
OK,105,47,865,105,2014-10-02T03:30:00,0,28204979,198059
OK,105,47,865,105,2014-10-02T03:35:00,0,28205408,198059
OK,105,47,865,105,2014-10-02T03:40:00,0,28205854,198059
OK,105,47,865,105,2014-10-02T03:45:00,0,28206237,198059
OK,105,47,865,105,2014-10-02T03:55:00,0,28207135,198059
OK,105,47,865,105,2014-10-02T04:00:00,0,28207556,198059
OK,105,47,865,105,2014-10-02T04:05:00,0,28208003,198059
OK,105,47,865,105,2014-10-02T04:10:00,0,28208431,198059
OK,105,47,865,105,2014-10-02T04:15:00,0,28208879,198059
OK,167,29,865,167,2014-10-02T04:20:00,2,28209317,198059
OK,121,41,865,121,2014-10-02T04:25:00,1,28209766,198059
OK,156,31,865,156,2014-10-02T04:30:00,5,28210189,198059
OK,155,32,865,155,2014-10-02T04:35:00,2,28210638,198059
OK,167,29,865,167,2014-10-02T04:40:00,1,28211064,198059
OK,167,29,865,167,2014-10-02T04:45:00,0,28211507,198059
OK,167,29,865,167,2014-10-02T04:50:00,0,28211885,198059
OK,124,40,865,124,2014-10-02T04:55:00,7,28212334,198059
OK,128,38,865,128,2014-10-02T05:00:00,0,28212763,198059
OK,149,33,865,149,2014-10-02T05:05:00,7,28213212,198059
OK,136,36,865,136,2014-10-02T05:10:00,0,28213650,198059
OK,136,36,865,136,2014-10-02T05:15:00,9,28214099,198059
OK,143,34,865,143,2014-10-02T05:20:00,4,28214513,198059
OK,134,37,865,134,2014-10-02T05:25:00,6,28214961,198059
OK,195,25,865,195,2014-10-02T05:30:00,2,28215378,198059
OK,178,27,865,178,2014-10-02T05:40:00,11,28215826,198059
OK,138,36,865,138,2014-10-02T05:45:00,2,28216605,198059
OK,154,32,865,154,2014-10-02T05:50:00,0,28217052,198059
OK,213,23,865,213,2014-10-02T05:55:00,18,28217501,198059
OK,160,31,865,160,2014-10-02T06:00:00,14,28217940,198059
OK,148,33,865,148,2014-10-02T06:05:00,9,28218389,198059
OK,137,36,865,137,2014-10-02T06:10:00,0,28218809,198059
OK,170,29,865,170,2014-10-02T06:15:00,10,28219258,198059
OK,177,28,865,177,2014-10-02T06:20:00,8,28219632,198059
OK,163,30,865,163,2014-10-02T06:25:00,11,28220080,198059
OK,147,33,865,147,2014-10-02T06:30:00,13,28220515,198059
OK,131,38,865,131,2014-10-02T06:35:00,10,28220963,198059
OK,134,37,865,134,2014-10-02T06:40:00,6,28221349,198059
OK,106,46,865,106,2014-10-02T06:45:00,5,28221630,198059
OK,119,41,865,119,2014-10-02T07:00:00,3,28222224,198059
OK,120,41,865,120,2014-10-02T07:05:00,3,28222673,198059
OK,113,44,865,113,2014-10-02T07:10:00,2,28223105,198059
OK,113,44,865,113,2014-10-02T07:15:00,0,28223540,198059
OK,113,44,865,113,2014-10-02T07:20:00,0,28223987,198059
OK,118,42,865,118,2014-10-02T07:25:00,3,28224342,198059
OK,118,42,865,118,2014-10-02T07:30:00,3,28224791,198059
OK,145,34,865,145,2014-10-02T07:35:00,11,28225240,198059
OK,160,31,865,160,2014-10-02T07:40:00,3,28225564,198059
OK,123,40,865,123,2014-10-02T07:50:00,8,28226452,198059
OK,110,45,865,110,2014-10-02T07:55:00,5,28226901,198059
OK,110,45,865,110,2014-10-02T08:00:00,3,28227317,198059
OK,130,38,865,130,2014-10-02T08:05:00,0,28227765,198059
OK,130,38,865,130,2014-10-02T08:10:00,0,28228125,198059
OK,123,40,865,123,2014-10-02T08:15:00,6,28228573,198059
OK,154,32,865,154,2014-10-02T08:20:00,2,28228984,198059
OK,116,42,865,116,2014-10-02T08:25:00,6,28229432,198059
OK,89,55,865,89,2014-10-02T08:30:00,3,28229783,198059
OK,117,42,865,117,2014-10-02T08:35:00,2,28230231,198059
OK,107,46,865,107,2014-10-02T08:40:00,0,28230601,198059
OK,107,46,865,107,2014-10-02T08:45:00,0,28231046,198059
OK,101,49,865,101,2014-10-02T08:50:00,3,28231469,198059
OK,100,49,865,100,2014-10-02T08:55:00,0,28231918,198059
OK,128,38,865,128,2014-10-02T09:00:00,2,28232261,198059
OK,154,32,865,154,2014-10-02T09:10:00,0,28232709,198059
OK,111,44,865,111,2014-10-02T09:15:00,2,28233158,198059
OK,120,41,865,120,2014-10-02T09:20:00,0,28233582,198059
OK,120,41,865,120,2014-10-02T09:25:00,0,28234031,198059
OK,120,41,865,120,2014-10-02T09:30:00,0,28234365,198059
OK,107,46,865,107,2014-10-02T09:35:00,0,28234813,198059
OK,107,46,865,107,2014-10-02T09:40:00,0,28235240,198059
OK,155,32,865,155,2014-10-02T09:45:00,1,28235689,198059
OK,155,32,865,155,2014-10-02T09:50:00,0,28236133,198059
OK,101,49,865,101,2014-10-02T09:55:00,2,28236579,198059
OK,88,56,865,88,2014-10-02T10:00:00,1,28236982,198059
OK,88,56,865,88,2014-10-02T10:05:00,0,28237430,198059
OK,156,31,865,156,2014-10-02T10:10:00,6,28237878,198059
OK,108,46,865,108,2014-10-02T10:15:00,6,28238326,198059
OK,115,43,865,115,2014-10-02T10:20:00,4,28238766,198059
OK,93,53,865,93,2014-10-02T10:25:00,2,28239215,198059
OK,83,59,865,83,2014-10-02T10:30:00,0,28239646,198059
OK,125,39,865,125,2014-10-02T10:35:00,9,28240094,198059
OK,116,42,865,116,2014-10-02T10:40:00,5,28240539,198059
OK,97,51,865,97,2014-10-02T10:45:00,1,28240987,198059
OK,97,51,865,97,2014-10-02T10:50:00,0,28241420,198059
OK,110,45,865,110,2014-10-02T10:55:00,4,28241867,198059
OK,105,47,865,105,2014-10-02T11:00:00,0,28242264,198059
OK,105,47,865,105,2014-10-02T11:05:00,0,28242712,198059
OK,117,42,865,117,2014-10-02T11:15:00,3,28243161,198059
OK,100,49,865,100,2014-10-02T11:20:00,6,28243924,198059
OK,99,50,865,99,2014-10-02T11:25:00,3,28244354,198059
OK,120,41,865,120,2014-10-02T11:30:00,0,28244802,198059
OK,87,57,865,87,2014-10-02T11:35:00,2,28245251,198059
OK,87,57,865,87,2014-10-02T11:40:00,2,28245658,198059
OK,101,49,865,101,2014-10-02T11:45:00,0,28246106,198059
OK,108,46,865,108,2014-10-02T11:50:00,8,28246543,198059
OK,92,54,865,92,2014-10-02T11:55:00,3,28246992,198059
OK,135,36,865,135,2014-10-02T12:00:00,1,28247438,198059
OK,135,36,865,135,2014-10-02T12:05:00,1,28247869,198059
OK,135,36,865,135,2014-10-02T12:10:00,0,28248317,198059
OK,139,35,865,139,2014-10-02T12:15:00,3,28248765,198059
OK,118,42,865,118,2014-10-02T12:20:00,2,28249192,198059
OK,153,32,865,153,2014-10-02T12:25:00,3,28249636,198059
OK,131,38,865,131,2014-10-02T12:30:00,2,28250055,198059
OK,105,47,865,105,2014-10-02T12:35:00,1,28250453,198059
OK,153,32,865,153,2014-10-02T12:45:00,2,28251233,198059
OK,119,41,865,119,2014-10-02T13:20:00,3,28251778,198059
OK,141,35,865,141,2014-10-02T13:30:00,5,28252362,198059
OK,130,38,865,130,2014-10-02T13:35:00,3,28252804,198059
OK,130,38,865,130,2014-10-02T13:40:00,0,28253221,198059
OK,133,37,865,133,2014-10-02T13:45:00,6,28253670,198059
OK,146,34,865,146,2014-10-02T13:50:00,5,28254076,198059
OK,155,32,865,155,2014-10-02T13:55:00,3,28254396,198059
OK,146,34,865,146,2014-10-02T14:10:00,5,28254973,198059
OK,155,32,865,155,2014-10-02T14:15:00,7,28255422,198059
OK,155,32,865,155,2014-10-02T14:20:00,5,28255850,198059
OK,155,32,865,155,2014-10-02T14:25:00,0,28256299,198059
OK,153,32,865,153,2014-10-02T14:30:00,10,28256727,198059
OK,163,30,865,163,2014-10-02T14:35:00,8,28257176,198059
OK,144,34,865,144,2014-10-02T14:40:00,2,28257617,198059
OK,173,28,865,173,2014-10-02T14:45:00,5,28258065,198059
OK,155,32,865,155,2014-10-02T14:50:00,5,28258498,198059
OK,133,37,865,133,2014-10-02T14:55:00,4,28258944,198059
OK,148,33,865,148,2014-10-02T15:00:00,2,28259393,198059
OK,145,34,865,145,2014-10-02T15:05:00,4,28259840,198059
OK,121,41,865,121,2014-10-02T15:10:00,4,28260273,198059
OK,116,42,865,116,2014-10-02T15:15:00,3,28260722,198059